Date String (YYYY-MM-DD hh:mm:ss) UTC,Instrument flags,Ambient pressure (hPa),Sample flow (lpm),Bypass flow (lpm),Sample temperature (°C),Ambient temperature (°C),ASC tube jacket temperature (°C),LED temperature (°C),Box temperature (°C),Sample RH (%),Span deviation,Mass concentration (μg/m³),Mass concentration (μg/m³),Mass concentration (μg/m³)
DateTimeUTC,F1_M11,P_M11,Q1_M11,Q2_M11,T1_M11,T2_M11,T3_M11,T4_M11,T5_M11,U1_M11,ZSPAN_M11,X0_M11,X2_M11,X1_M11
2022-08-26 23:00:00,,0826.5,4.99,0.00,29.7,27.2,00.0,38.3,31.5,23.0,0000.0,0008.12,0003.77,0003.22
2022-08-26 23:01:00,,0826.4,5.01,0.00,29.6,26.4,00.0,38.3,31.4,23.2,0000.0,0009.00,0003.79,0003.24
2022-08-26 23:02:00,,0826.4,4.99,0.00,29.6,26.4,00.0,38.2,31.4,23.2,0000.0,0009.39,0003.79,0003.26
2022-08-26 23:03:00,,0826.3,5.01,0.00,29.5,26.7,00.0,38.2,31.2,23.3,0000.0,0009.67,0003.76,0003.27
2022-08-26 23:04:00,,0826.4,4.99,0.00,29.5,27.1,00.0,38.2,31.2,23.5,0000.0,0009.68,0003.79,0003.29
2022-08-26 23:05:00,,0826.5,5.00,0.00,29.5,27.4,00.0,38.2,31.3,23.8,0000.0,0009.77,0003.83,0003.30
2022-08-26 23:06:00,,0826.5,5.00,0.00,29.5,27.7,00.0,38.2,31.3,23.8,0000.0,0009.78,0003.84,0003.30
2022-08-26 23:07:00,,0826.5,4.99,0.00,29.5,27.9,00.0,38.2,31.4,24.1,0000.0,0010.32,0003.84,0003.30
2022-08-26 23:08:00,,0826.5,5.01,0.00,29.5,28.1,00.0,38.2,31.4,24.0,0000.0,0010.04,0003.82,0003.30
2022-08-26 23:09:00,,0826.4,4.99,0.00,29.5,28.2,00.0,38.2,31.5,24.1,0000.0,0009.94,0003.82,0003.30
2022-08-26 23:10:00,,0826.4,5.00,0.00,29.6,28.4,00.0,38.2,31.5,24.5,0000.0,0009.76,0003.81,0003.30
2022-08-26 23:11:00,,0826.5,5.00,0.00,29.6,28.5,00.0,38.2,31.5,24.4,0000.0,0009.38,0003.78,0003.32
2022-08-26 23:12:00,,0826.5,4.99,0.00,29.6,28.6,00.0,38.3,31.6,24.5,0000.0,0009.29,0003.77,0003.32
2022-08-26 23:13:00,,0826.5,5.00,0.00,29.7,28.7,00.0,38.3,31.6,24.4,0000.0,0009.30,0003.74,0003.33
2022-08-26 23:14:00,,0826.4,5.00,0.00,29.7,28.7,00.0,38.3,31.7,24.4,0000.0,0008.97,0003.74,0003.33
2022-08-26 23:15:00,,0826.5,5.00,0.00,29.7,27.8,00.0,38.3,31.6,24.5,0000.0,0008.90,0003.71,0003.32
2022-08-26 23:16:00,,0826.4,4.99,0.00,29.7,27.1,00.0,38.3,31.6,24.4,0000.0,0008.93,0003.72,0003.32
2022-08-26 23:17:00,,0826.4,4.99,0.00,29.7,27.1,00.0,38.3,31.5,24.1,0000.0,0008.67,0003.68,0003.32
2022-08-26 23:18:00,,0826.4,5.00,0.00,29.6,27.3,00.0,38.3,31.4,24.0,0000.0,0007.97,0003.63,0003.32
2022-08-26 23:19:00,,0826.4,5.00,0.00,29.6,27.6,00.0,38.3,31.4,24.0,0000.0,0007.93,0003.60,0003.31
2022-08-26 23:20:00,,0826.3,4.99,0.00,29.6,27.9,00.0,38.3,31.4,24.1,0000.0,0007.91,0003.57,0003.30
2022-08-26 23:21:00,,0826.5,5.00,0.00,29.6,28.1,00.0,38.3,31.5,23.9,0000.0,0007.90,0003.56,0003.30
2022-08-26 23:22:00,,0826.5,5.00,0.00,29.7,28.3,00.0,38.3,31.5,23.7,0000.0,0007.57,0003.55,0003.28
2022-08-26 23:23:00,,0826.4,4.99,0.00,29.7,28.4,00.0,38.3,31.6,23.8,0000.0,0006.41,0003.56,0003.27
2022-08-26 23:24:00,,0826.5,5.00,0.00,29.7,28.5,00.0,38.3,31.6,23.7,0000.0,0005.47,0003.54,0003.27
2022-08-26 23:25:00,,0826.5,5.00,0.00,29.7,28.6,00.0,38.4,31.7,23.6,0000.0,0005.22,0003.54,0003.26
2022-08-26 23:26:00,,0826.5,5.00,0.00,29.8,28.7,00.0,38.4,31.7,23.6,0000.0,0005.18,0003.53,0003.26
2022-08-26 23:27:00,,0826.5,5.01,0.00,29.8,28.8,00.0,38.4,31.7,23.6,0000.0,0004.93,0003.49,0003.25
2022-08-26 23:28:00,,0826.5,4.99,0.00,29.8,28.3,00.0,38.4,31.7,23.6,0000.0,0005.00,0003.52,0003.24
2022-08-26 23:29:00,,0826.6,4.99,0.00,29.8,26.9,00.0,38.4,31.6,23.7,0000.0,0005.06,0003.53,0003.24
2022-08-26 23:30:00,,0826.5,5.01,0.00,29.7,26.3,00.0,38.4,31.5,23.8,0000.0,0005.00,0003.54,0003.25
2022-08-26 23:31:00,,0826.5,4.99,0.00,29.7,26.4,00.0,38.3,31.4,23.9,0000.0,0004.92,0003.54,0003.26
2022-08-26 23:32:00,,0826.5,5.01,0.00,29.6,26.7,00.0,38.3,31.3,24.0,0000.0,0004.95,0003.55,0003.26
2022-08-26 23:33:00,,0826.5,5.00,0.00,29.6,27.1,00.0,38.3,31.3,24.1,0000.0,0005.24,0003.55,0003.26
2022-08-26 23:34:00,,0826.5,5.00,0.00,29.6,27.4,00.0,38.3,31.3,24.3,0000.0,0005.34,0003.55,0003.25
2022-08-26 23:35:00,,0826.5,5.00,0.00,29.6,27.7,00.0,38.3,31.4,24.2,0000.0,0005.51,0003.57,0003.25
2022-08-26 23:36:00,,0826.5,5.00,0.00,29.6,27.9,00.0,38.3,31.4,24.4,0000.0,0005.43,0003.55,0003.25
2022-08-26 23:37:00,,0826.5,5.01,0.00,29.6,28.1,00.0,38.3,31.5,24.2,0000.0,0005.51,0003.57,0003.25
2022-08-26 23:38:00,,0826.5,5.00,0.00,29.6,28.3,00.0,38.3,31.5,24.3,0000.0,0005.56,0003.57,0003.25
2022-08-26 23:39:00,,0826.5,5.00,0.00,29.6,28.4,00.0,38.3,31.5,24.3,0000.0,0005.47,0003.55,0003.25
2022-08-26 23:40:00,,0826.5,5.00,0.00,29.7,28.5,00.0,38.3,31.6,24.4,0000.0,0005.64,0003.56,0003.26
2022-08-26 23:41:00,,0826.5,5.00,0.00,29.7,28.6,00.0,38.3,31.6,24.4,0000.0,0005.81,0003.56,0003.25
2022-08-26 23:42:00,,0826.5,5.00,0.00,29.7,28.7,00.0,38.4,31.7,24.3,0000.0,0005.91,0003.58,0003.24
2022-08-26 23:43:00,,0826.6,5.01,0.00,29.8,28.8,00.0,38.4,31.7,24.2,0000.0,0006.03,0003.60,0003.24
2022-08-26 23:44:00,,0826.5,5.01,0.00,29.8,28.8,00.0,38.4,31.8,24.2,0000.0,0005.81,0003.60,0003.24
2022-08-26 23:45:00,,0826.5,4.99,0.00,29.8,27.6,00.0,38.4,31.7,24.2,0000.0,0005.80,0003.60,0003.24
2022-08-26 23:46:00,,0826.5,5.01,0.00,29.8,26.9,00.0,38.4,31.6,24.4,0000.0,0005.79,0003.62,0003.24
2022-08-26 23:47:00,,0826.5,4.99,0.00,29.7,27.0,00.0,38.4,31.5,24.6,0000.0,0005.91,0003.65,0003.25
2022-08-26 23:48:00,,0826.5,5.00,0.00,29.7,27.3,00.0,38.3,31.4,24.8,0000.0,0005.85,0003.66,0003.26
2022-08-26 23:49:00,,0826.6,5.00,0.00,29.7,27.6,00.0,38.3,31.5,24.7,0000.0,0005.80,0003.68,0003.28
2022-08-26 23:50:00,,0826.7,4.99,0.00,29.7,27.9,00.0,38.3,31.5,24.7,0000.0,0005.92,0003.69,0003.29
2022-08-26 23:51:00,,0826.7,5.00,0.00,29.7,28.1,00.0,38.3,31.5,24.8,0000.0,0005.90,0003.73,0003.30
2022-08-26 23:52:00,,0826.7,5.00,0.00,29.7,28.3,00.0,38.4,31.6,24.9,0000.0,0005.85,0003.75,0003.33
2022-08-26 23:53:00,,0826.7,4.99,0.00,29.7,28.4,00.0,38.4,31.6,24.9,0000.0,0005.88,0003.76,0003.35
2022-08-26 23:54:00,,0826.7,5.00,0.00,29.7,28.6,00.0,38.4,31.7,24.9,0000.0,0006.27,0003.79,0003.37
2022-08-26 23:55:00,,0826.8,5.01,0.00,29.8,28.7,00.0,38.4,31.7,24.9,0000.0,0006.33,0003.82,0003.40
2022-08-26 23:56:00,,0827.0,5.00,0.00,29.8,28.8,00.0,38.5,31.7,24.9,0000.0,0006.40,0003.85,0003.43
2022-08-26 23:57:00,,0827.0,4.99,0.00,29.8,28.0,00.0,38.4,31.7,24.7,0000.0,0006.74,0003.89,0003.45
2022-08-26 23:58:00,,0826.9,5.01,0.00,29.8,26.7,00.0,38.4,31.6,24.8,0000.0,0006.77,0003.89,0003.46
2022-08-26 23:59:00,,0827.1,4.98,0.00,29.7,26.3,00.0,38.4,31.5,24.8,0000.0,0006.87,0003.89,0003.46
